Location: Strawberry
(45.6646°N, 111.9596°W)
Time: 22:39:23
(UTC+00:00)

X-37B - Pass Details

Date: 22 August 2022
Orbit: 330 x 340 km, 45.0° (Epoch: 02 September)

Event Time Altitude Azimuth Distance (km) Brightness Sun altitude
Rises 03:16:02 0° 219° (SW) 2,086 4.4 -9.0°
Reaches altitude 10° 03:18:20 10° 201° (SSW) 1,256 3.1 -9.4°
Maximum altitude 03:20:27 19° 152° (SSE) 867 1.9 -9.7°
Enters shadow 03:21:29 16° 122° (ESE) 977 1.9 -9.9°
